Wind_Speed
13 13 12 10 10 7 5 4 4 4 4 5 6 8 10 11 11 10 9 8 8 9 8 9 9 10 10 10 10 11 11 11 11 10 10 10 9 8 7 7 8 8 8
12 13 13 11 10 6 5 3 3 3 3 5 6 8 9 10 9 9 9 8 8 8 8 8 9 10 10 9 10 10 10 11 10 10 11 11 11 12 11 10 10 10 9
16 14 13 12 10 7 5 3 3 3 3 4 5 7 8 8 7 7 7 7 8 8 8 9 9 9 10 11 12 12 12 12 11 11 11 11 11 11 11 12 12 11 10
15 16 13 11 9 7 5 4 4 3 3 3 5 6 7 7 6 6 6 6 7 7 8 8 9 10 11 12 13 13 13 13 12 12 12 11 11 11 10 11 12 12 12
15 17 15 13 10 8 6 5 4 3 2 3 4 5 6 6 6 5 5 5 6 6 8 9 10 11 12 13 14 14 14 14 14 13 12 11 12 11 11 10 11 11 11
14 18 17 14 12 9 6 5 4 3 2 2 3 5 6 6 5 5 5 5 6 7 9 10 12 13 14 15 15 15 14 13 13 13 12 11 11 12 12 11 10 9 11
12 17 18 15 12 10 9 7 5 3 2 2 3 5 6 6 6 5 6 6 7 8 10 12 15 15 14 14 13 12 12 12 12 13 13 12 12 12 13 12 12 10 8
12 16 17 14 13 12 10 8 6 4 2 1 3 4 5 5 6 6 6 7 8 10 12 14 15 14 13 13 12 12 12 12 13 13 14 13 12 12 12 13 13 13 13
11 17 16 15 13 13 11 9 7 5 3 1 2 3 5 6 6 6 7 7 9 11 13 14 13 13 13 12 11 11 11 13 14 14 14 15 14 13 13 14 14 15 14
12 16 18 15 15 13 12 10 8 5 3 1 2 3 5 6 7 6 7 8 10 11 13 14 13 12 12 12 10 10 13 15 15 13 12 12 13 14 14 15 15 15 17
14 15 17 17 15 14 12 10 8 5 3 2 2 4 6 8 8 7 7 8 10 11 12 12 12 12 12 13 13 14 16 16 14 13 12 13 14 15 16 16 17 14 15
16 15 18 17 16 15 12 10 8 6 4 3 3 4 6 8 9 8 8 8 9 10 11 11 12 13 14 15 16 16 17 17 16 14 14 14 15 15 16 18 18 17 15
19 18 17 18 17 15 13 11 8 7 5 4 4 5 7 8 9 9 9 9 9 10 10 11 12 14 15 16 17 17 17 17 17 16 15 15 16 17 17 18 20 21 19
23 21 19 20 18 17 13 12 9 8 6 5 5 5 7 9 10 10 10 11 10 11 12 12 13 14 15 16 17 18 18 18 17 16 16 15 16 18 19 20 21 22 22
25 24 21 19 18 18 15 13 10 9 7 6 5 6 8 10 10 11 12 12 12 11 12 13 14 15 16 17 18 18 18 19 18 18 18 18 17 18 18 19 20 21 22
25 25 23 20 19 18 16 13 12 10 9 6 6 7 9 11 12 12 12 12 12 11 13 12 14 15 17 18 18 18 19 20 20 19 19 19 18 18 18 19 19 20 21
26 26 25 23 22 20 17 14 13 12 9 7 7 8 10 11 12 13 13 13 12 12 12 13 14 16 17 18 19 20 20 20 20 20 20 20 19 19 18 18 18 19 20
26 26 27 25 23 21 18 16 14 13 11 9 9 10 12 12 13 14 14 15 14 14 14 15 16 17 18 19 19 20 21 21 21 21 21 21 20 19 19 19 19 19 19
26 26 27 25 23 21 19 17 15 14 13 11 10 11 13 13 14 15 15 16 16 16 16 16 18 18 19 20 20 21 21 22 22 21 21 21 21 20 20 19 20 20 20
26 28 29 26 24 23 20 19 16 16 15 13 12 13 14 15 15 15 17 17 18 18 19 19 19 18 19 21 22 22 22 22 22 22 22 22 22 22 22 21 21 22 22
26 29 28 26 24 23 22 19 18 17 17 15 14 15 15 17 17 17 18 19 20 20 20 21 21 20 21 23 23 24 24 24 23 23 24 24 24 24 24 24 24 24 24
22 25 26 25 23 23 22 20 19 20 20 17 16 16 17 18 19 19 20 20 22 22 22 21 21 22 23 24 24 25 25 24 25 24 25 25 25 26 26 27 27 27 27
15 20 21 22 24 24 23 22 21 22 21 19 18 19 20 20 20 21 22 23 23 24 23 22 23 23 24 25 25 27 28 28 28 26 26 25 26 27 27 28 29 29 28
20 18 21 19 20 22 24 24 22 23 23 18 20 21 21 22 22 23 24 25 25 24 23 23 24 25 26 27 28 29 29 30 30 30 26 26 27 27 28 28 29 29 29
39 22 18 19 22 23 25 24 25 26 23 21 22 22 23 24 25 26 26 27 25 24 25 25 26 26 27 29 30 31 31 31 30 30 27 26 26 27 28 28 29 29 29
24 26 21 25 23 29 32 30 27 26 23 25 25 24 26 27 28 28 28 27 26 26 26 27 28 29 30 31 32 31 30 28 28 30 31 29 28 25 28 30 29 29 28
Wind_Direction
193 181 174 156 151 146 136 117 105 81 68 53 34 33 26 23 25 34 43 51 58 60 54 47 37 35 32 23 17 12 10 11 6 1 359 356 355 355 349 337 334 335 335
200 191 182 164 158 152 148 139 121 100 80 65 41 30 25 24 27 35 44 51 51 51 44 39 31 21 12 5 0 357 354 350 353 351 348 345 344 344 342 336 333 328 327
188 196 195 171 168 160 158 153 133 119 94 62 45 34 27 32 35 39 44 43 36 35 27 16 12 5 354 348 344 340 336 340 343 342 342 338 335 332 331 328 329 327 321
194 191 193 184 174 169 165 172 154 135 101 60 40 33 37 33 37 43 36 34 25 20 13 2 355 347 341 338 335 332 332 334 337 338 336 331 328 326 322 318 317 314 311
190 189 189 187 184 186 184 173 157 138 98 60 39 29 37 44 30 28 24 22 13 5 357 346 342 337 333 332 331 328 329 331 334 336 336 331 324 321 314 309 307 303 304
192 192 188 188 190 193 188 175 162 150 120 57 41 33 31 32 33 14 8 5 357 354 348 343 338 333 331 329 329 329 331 334 335 334 331 327 321 317 310 303 312 286 304
192 196 191 193 190 190 183 173 171 165 132 66 33 30 28 22 16 11 1 352 354 351 349 341 335 331 334 336 338 340 341 338 332 328 323 320 316 307 302 302 296 293 301
189 205 198 195 191 186 177 174 174 175 153 90 29 25 24 19 7 3 358 352 354 349 344 340 339 341 346 344 342 339 336 337 332 328 320 316 314 310 307 297 290 282 284
203 200 204 195 192 181 180 180 185 181 185 167 39 17 15 10 2 0 354 351 349 347 342 344 350 353 349 344 337 335 338 338 334 326 313 310 311 310 305 298 289 285 282
207 205 207 194 191 184 187 187 194 189 203 259 355 5 3 2 356 356 351 349 343 344 345 348 355 1 358 356 349 342 335 335 334 330 327 320 314 314 314 311 303 292 289
208 215 213 198 192 193 195 196 199 194 215 252 325 351 353 356 354 350 347 345 339 342 347 350 358 359 353 347 341 332 326 326 328 325 313 314 314 315 318 316 316 310 303
209 217 211 200 196 200 197 205 204 207 222 259 312 341 349 351 346 342 337 340 334 343 348 350 357 352 349 345 341 334 329 330 330 326 313 305 307 310 313 314 313 308 308
217 208 211 203 198 206 200 209 213 217 231 259 297 325 338 342 341 335 332 334 333 345 346 346 354 349 349 344 341 336 331 332 329 327 320 313 306 304 309 311 310 309 311
218 206 208 203 198 207 204 212 218 225 237 257 286 314 327 329 334 334 332 331 333 348 342 341 350 346 344 344 339 335 332 332 330 326 324 322 318 312 307 306 306 305 306
211 206 204 205 202 210 205 214 223 232 241 257 288 308 316 317 330 333 330 328 328 344 334 334 345 340 343 343 339 335 332 331 330 331 329 327 323 321 316 312 309 305 304
208 207 203 206 209 214 211 215 228 238 246 263 284 302 307 313 325 329 328 322 325 334 323 334 335 336 338 337 336 334 332 331 330 331 328 327 324 322 318 316 314 310 310
214 204 203 204 209 213 216 219 230 242 252 267 283 295 300 310 320 322 322 319 319 317 317 327 325 329 331 333 334 332 330 328 328 328 327 324 322 322 322 320 319 316 313
215 209 205 205 208 213 217 222 229 242 251 262 278 288 296 305 313 314 316 316 312 314 321 321 322 324 328 328 331 329 327 326 326 327 325 322 321 318 316 314 313 311 309
215 209 208 210 210 212 218 225 227 242 252 260 273 287 295 302 308 311 313 314 315 312 312 316 318 321 322 325 327 326 325 323 323 322 318 316 314 312 311 308 306 305 306
206 205 208 210 212 218 218 223 230 238 250 259 270 283 292 299 303 305 309 314 312 310 311 312 312 314 317 321 321 320 318 318 317 316 313 310 310 309 308 307 305 304 302
202 204 211 213 215 218 224 223 234 242 251 258 269 280 288 296 301 303 307 310 311 309 307 301 303 311 320 319 317 316 315 314 314 312 309 307 305 303 303 302 302 301 300
197 206 214 215 221 226 228 231 234 244 253 261 271 279 286 292 297 302 304 308 308 302 299 302 309 315 315 312 310 310 311 311 309 309 307 306 304 304 304 304 304 303 302
210 206 216 221 225 229 228 232 239 245 252 261 272 279 284 291 296 300 302 302 301 300 301 304 307 307 307 307 309 310 309 309 308 308 306 304 303 303 303 302 301 301 301
218 218 218 225 231 236 235 237 242 253 257 262 270 277 285 290 294 295 295 296 296 297 299 301 302 303 304 305 306 307 308 307 306 304 304 303 302 302 301 299 298 298 299
215 222 236 241 248 253 246 245 252 255 262 269 271 277 283 287 289 290 291 293 295 296 298 299 300 301 302 305 306 306 305 304 303 302 303 302 301 300 297 297 296 295 296
223 223 241 252 263 264 260 250 253 260 264 268 271 276 280 282 284 285 289 292 293 295 296 297 299 301 304 305 305 304 303 303 303 302 302 301 298 296 296 296 295 294 294
Height
3180 3181 3183 3184 3185 3186 3187 3188 3188 3189 3189 3189 3189 3189 3188 3188 3187 3187 3186 3186 3186 3186 3186 3185 3185 3184 3183 3183 3182 3182 3181 3180 3180 3179 3178 3177 3177 3176 3175 3174 3173 3173 3172
3179 3181 3182 3183 3185 3186 3187 3188 3188 3189 3189 3188 3189 3188 3188 3188 3187 3187 3187 3187 3186 3186 3186 3186 3185 3185 3184 3183 3182 3181 3180 3180 3179 3178 3177 3176 3175 3175 3174 3173 3172 3171 3171
3177 3180 3182 3183 3185 3186 3187 3188 3189 3189 3189 3189 3189 3188 3188 3188 3187 3188 3187 3187 3187 3187 3186 3186 3185 3184 3184 3183 3182 3180 3179 3178 3178 3177 3176 3175 3175 3174 3173 3172 3171 3170 3169
3176 3178 3181 3183 3184 3186 3187 3188 3189 3189 3189 3189 3189 3188 3188 3188 3188 3188 3188 3187 3187 3187 3186 3186 3185 3184 3182 3181 3181 3179 3178 3177 3176 3175 3174 3173 3172 3172 3171 3170 3169 3168 3168
3175 3177 3180 3182 3184 3185 3186 3187 3188 3189 3189 3189 3189 3188 3188 3187 3188 3188 3188 3187 3187 3187 3186 3185 3184 3183 3181 3180 3179 3177 3176 3175 3174 3172 3172 3171 3170 3169 3168 3168 3167 3166 3166
3174 3176 3178 3181 3182 3184 3186 3187 3188 3188 3189 3189 3188 3188 3188 3187 3187 3187 3187 3187 3186 3186 3185 3185 3183 3182 3180 3179 3177 3175 3174 3173 3172 3171 3169 3169 3168 3166 3166 3165 3165 3164 3163
3173 3175 3177 3179 3181 3183 3185 3186 3187 3188 3188 3188 3188 3187 3187 3187 3186 3186 3186 3186 3185 3185 3184 3183 3182 3180 3178 3177 3175 3173 3172 3171 3170 3169 3168 3167 3166 3165 3163 3163 3162 3161 3161
3171 3175 3176 3177 3180 3182 3184 3185 3186 3187 3187 3187 3188 3187 3186 3186 3186 3185 3185 3185 3184 3184 3183 3182 3180 3178 3177 3175 3173 3172 3171 3169 3168 3167 3166 3165 3163 3162 3161 3160 3159 3158 3158
3170 3173 3175 3176 3178 3180 3183 3184 3185 3185 3186 3187 3187 3187 3186 3186 3185 3185 3184 3184 3184 3183 3182 3180 3178 3177 3175 3174 3172 3171 3170 3168 3167 3166 3165 3163 3162 3160 3159 3158 3156 3155 3154
3170 3172 3174 3175 3178 3179 3181 3182 3184 3184 3186 3187 3186 3186 3185 3185 3185 3184 3183 3183 3182 3181 3180 3178 3177 3175 3174 3173 3171 3170 3169 3167 3165 3164 3162 3161 3160 3159 3157 3155 3153 3153 3151
3167 3170 3173 3175 3176 3179 3180 3181 3183 3183 3185 3186 3186 3185 3185 3184 3183 3183 3182 3181 3181 3180 3179 3177 3176 3174 3173 3172 3171 3169 3167 3165 3162 3161 3160 3159 3158 3156 3155 3153 3152 3149 3148
3165 3168 3171 3173 3175 3178 3179 3181 3181 3182 3183 3184 3185 3184 3184 3184 3183 3182 3181 3180 3180 3178 3177 3176 3174 3174 3172 3170 3169 3167 3165 3163 3161 3159 3158 3157 3155 3154 3153 3151 3149 3148 3145
3163 3165 3169 3171 3173 3176 3177 3179 3180 3181 3182 3183 3183 3183 3183 3182 3181 3181 3180 3179 3178 3177 3176 3175 3173 3172 3170 3168 3167 3166 3164 3162 3160 3158 3156 3154 3153 3151 3150 3148 3147 3145 3143
3160 3163 3167 3169 3170 3174 3175 3177 3179 3180 3181 3181 3182 3181 3181 3181 3180 3179 3178 3177 3177 3174 3175 3173 3171 3170 3168 3166 3166 3164 3162 3160 3158 3156 3154 3152 3150 3148 3147 3145 3144 3143 3141
3157 3160 3164 3167 3168 3172 3173 3175 3177 3178 3179 3179 3179 3179 3179 3180 3178 3177 3176 3176 3175 3173 3173 3171 3168 3168 3166 3165 3164 3162 3160 3158 3155 3153 3151 3149 3147 3145 3144 3142 3140 3139 3137
3153 3157 3160 3164 3167 3170 3171 3173 3175 3176 3177 3177 3177 3177 3177 3178 3177 3176 3175 3174 3173 3171 3172 3169 3167 3166 3164 3163 3161 3160 3157 3155 3153 3151 3148 3146 3144 3142 3140 3139 3137 3135 3133
3150 3153 3157 3160 3163 3167 3169 3170 3173 3174 3175 3174 3174 3175 3175 3175 3175 3174 3174 3172 3170 3170 3169 3167 3166 3165 3163 3161 3159 3157 3155 3152 3150 3148 3146 3144 3142 3140 3138 3136 3134 3133 3131
3146 3150 3154 3157 3160 3163 3166 3167 3169 3171 3171 3171 3171 3172 3173 3172 3172 3172 3171 3170 3169 3167 3165 3164 3163 3162 3160 3159 3156 3154 3152 3150 3147 3145 3143 3141 3139 3137 3134 3132 3131 3129 3128
3142 3147 3151 3154 3157 3159 3162 3165 3166 3168 3169 3168 3169 3169 3170 3170 3169 3169 3169 3168 3166 3165 3163 3161 3160 3159 3157 3155 3152 3150 3149 3147 3144 3141 3139 3137 3135 3132 3131 3129 3127 3125 3123
3138 3143 3147 3150 3154 3157 3158 3161 3162 3164 3165 3166 3166 3166 3167 3167 3166 3166 3165 3164 3163 3162 3160 3158 3157 3155 3153 3150 3149 3147 3145 3143 3140 3138 3136 3133 3131 3129 3127 3126 3124 3122 3120
3134 3139 3143 3147 3150 3153 3155 3156 3158 3160 3162 3162 3162 3163 3163 3163 3163 3162 3161 3160 3159 3158 3157 3155 3153 3151 3148 3147 3145 3143 3141 3139 3137 3134 3132 3129 3127 3125 3122 3120 3119 3117 3115
3130 3135 3140 3144 3147 3150 3151 3152 3154 3156 3158 3158 3158 3159 3159 3159 3159 3158 3157 3156 3155 3154 3153 3151 3148 3146 3145 3143 3141 3139 3137 3136 3132 3130 3127 3125 3123 3121 3119 3117 3115 3113 3111
3127 3132 3136 3139 3142 3145 3146 3148 3150 3152 3153 3153 3154 3155 3155 3155 3154 3154 3153 3152 3150 3149 3147 3146 3144 3142 3140 3138 3136 3134 3131 3129 3127 3125 3123 3120 3118 3116 3114 3111 3109 3107 3105
3124 3129 3132 3135 3138 3140 3143 3144 3145 3148 3149 3148 3150 3150 3150 3150 3149 3148 3147 3146 3144 3143 3142 3140 3139 3137 3135 3132 3130 3128 3125 3123 3120 3118 3118 3115 3112 3110 3108 3105 3103 3100 3098
3121 3123 3128 3130 3133 3136 3139 3141 3142 3144 3146 3145 3145 3145 3144 3144 3143 3143 3142 3140 3139 3137 3136 3134 3133 3131 3129 3127 3124 3121 3118 3115 3113 3110 3110 3108 3106 3103 3101 3099 3097 3094 3092
3116 3120 3123 3126 3129 3132 3135 3136 3138 3139 3139 3140 3140 3139 3138 3138 3137 3137 3135 3134 3132 3131 3130 3128 3126 3124 3122 3120 3117 3114 3111 3109 3106 3103 3101 3100 3100 3099 3094 3091 3089 3087 3085